Temperatures and Conditions from around the state of pennsylvania

NOAA NWS Hourly Roundups by Site

Regional Weather Roundup for State College, PA

To Select Another Site Choose from List

Select Site:  

000
ASUS41 KCTP 122210
RWRCTP

REGIONAL WEATHER ROUNDUP
NATIONAL WEATHER SERVICE STATE COLLEGE PA
500 PM EST WED DEC 12 2018

Note: "fair" indicates few or no clouds below 12,000 feet with no
significant weather and/or obstructions to visibility.

* = STATION THAT DOES NOT REPORT PRECIPITATION /E.G. RAIN...SNOW...ETC/
    THUNDER OR FOG.

PAZ002>004-007>009-013>016-020>023-029>032-122300-
WESTERN PENNSYLVANIA

CITY           SKY/WX    TMP DP  RH WIND       PRES   REMARKS
ERIE           FAIR      37  26  64 S15       29.96F
MEADVILLE      FAIR      34  25  69 VRB5      29.95F
FRANKLIN*      MOCLDY    33  24  69 SE9       29.98S
NEW CASTLE     MOCLDY    37  24  59 SE6       29.98F
BEAVER COUNTY  MOCLDY    36  25  64 SE10      29.97F
BUTLER*        FAIR      36  24  62 SE5       30.00S
PITTSBURGH INT CLOUDY    38  23  55 SE8       29.98F
PITTSBURGH     FAIR      37  24  59 S7        29.99S
INDIANA*       CLOUDY    37  27  65 E8        30.05F
LATROBE        MOCLDY    41  23  48 S9        30.01F
WASHINGTON CO* CLOUDY    40  24  53 SE6       30.00F
$$

PAZ004>006-010>012-017>019-024>028-033>037-041-042-045-046-049>053-122300-
CENTRAL PENNSYLVANIA

CITY           SKY/WX    TMP DP  RH WIND       PRES   REMARKS
BRADFORD       FAIR      29  22  75 SE8       30.00F
DUBOIS         FAIR      31  22  69 E10       29.99F
CLEARFIELD     FAIR      33  23  66 E3        30.06S
JOHNSTOWN      CLOUDY    34  23  64 SE7       30.00F
ALTOONA        FAIR      34  23  64 SE5       30.07S
STATE COLLEGE  CLEAR     32  23  69 CALM      30.09S
WILLIAMSPORT   FAIR      34  23  64 CALM      30.14R
SELINSGROVE    FAIR      33  25  72 CALM      30.15R
FT INDIANTOWN  CLOUDY    38  21  51 S5        30.16R
CAPITAL CITY   FAIR      41  21  44 S3        30.16R
HARRISBURG     CLOUDY    40  23  50 SW5       30.16R
YORK           FAIR      37  25  61 CALM      30.16R
$$

PAZ038>040-043-044-047-048-054-055-060>062-067>071-122300-
EASTERN PENNSYLVANIA

CITY           SKY/WX    TMP DP  RH WIND       PRES   REMARKS
SCRANTON       MOCLDY    34  24  67 E3        30.13R
MOUNT POCONO   CLOUDY    29  22  75 W6        30.08R
ALLENTOWN      FAIR      37  22  54 NE3       30.16R
QUAKERTOWN*    CLEAR     34  23  64 CALM      30.16R
READING        FAIR      39  25  57 CALM      30.16R
LANCASTER      FAIR      40  23  50 CALM      30.17R
COATESVILLE    FAIR      37  23  56 CALM      30.17R
POTTSTOWN      FAIR      33  22  63 E5        30.16S
BLUE BELL      FAIR      32  27  80 CALM      30.19R
DOYLESTOWN     FAIR      35  22  58 CALM      30.16R
WILLOW GROVE   NOT AVBL
NORTH PHILA    FAIR      41  22  46 CALM      30.20R
PHILADELPHIA   MOCLDY    41  23  48 N6        30.17S
$$



 

View Past Reports for State College, PA.

Products Courtesy of NOAA-NWS
NWS Information Parsing Script by Ken True at Saratoga Weather - Script by SE Lincoln Weather.